• In Sweden
  • List of Countries
  • For 7 days
  • Water Temperature
  • Satellite Maps
  • Weather Map
  • Weather Widgets
  • user-avatar
    Login

    Hourly Weather Akseki

    Today, 17 October, Wednesday

    Time Temperature Precipitation Wind Pressure Humidity
    00:00 +13°C° 0 mm 1 mps 652 mmHg 66%
    01:00 +13°C° 0 mm 1 mps 652 mmHg 66%
    02:00 +13°C° 0 mm 1 mps 652 mmHg 66%
    03:00 +12°C° 0 mm 1 mps 651 mmHg 68%
    04:00 +12°C° 0 mm 1 mps 651 mmHg 69%
    05:00 +12°C° 0 mm 1 mps 651 mmHg 70%
    06:00 +13°C° 0 mm 1 mps 652 mmHg 64%
    07:00 +15°C° 0 mm 1 mps 652 mmHg 58%
    08:00 +18°C° 0 mm 1 mps 653 mmHg 51%
    09:00 +19°C° 0.2 mm 1 mps 653 mmHg 48%
    10:00 +21°C° 0.2 mm 1 mps 653 mmHg 45%
    11:00 +22°C° 0.2 mm 1 mps 653 mmHg 41%
    12:00 +21°C° 0.4 mm 2 mps 653 mmHg 41%
    13:00 +21°C° 0.4 mm 2 mps 653 mmHg 40%
    14:00 +23°C° 0.4 mm 2 mps 653 mmHg 40%
    15:00 +20°C° 0.7 mm 2 mps 653 mmHg 46%
    16:00 +19°C° 0.7 mm 2 mps 652 mmHg 51%
    17:00 +19°C° 0.7 mm 1 mps 652 mmHg 57%
    18:00 +18°C° 0.3 mm 1 mps 652 mmHg 61%
    19:00 +15°C° 0.3 mm 1 mps 652 mmHg 65%
    20:00 +14°C° 0.3 mm 1 mps 651 mmHg 69%
    21:00 +14°C° 0 mm 1 mps 651 mmHg 69%
    22:00 +14°C° 0 mm 1 mps 651 mmHg 70%
    23:00 +13°C° 0 mm 1 mps 651 mmHg 70%

    Tomorrow, 18 October, Thursday

    Time Temperature Precipitation Wind Pressure Humidity
    00:00 +13°C° 0 mm 1 mps 651 mmHg 70%
    01:00 +13°C° 0 mm 1 mps 651 mmHg 69%
    02:00 +12°C° 0 mm 1 mps 651 mmHg 69%
    03:00 +12°C° 0 mm 1 mps 651 mmHg 69%
    04:00 +12°C° 0 mm 1 mps 650 mmHg 70%
    05:00 +12°C° 0 mm 1 mps 650 mmHg 70%
    06:00 +14°C° 0 mm 1 mps 651 mmHg 63%
    07:00 +15°C° 0 mm 1 mps 652 mmHg 56%
    08:00 +18°C° 0 mm 1 mps 652 mmHg 49%
    09:00 +19°C° 0 mm 1 mps 653 mmHg 46%
    10:00 +21°C° 0 mm 1 mps 653 mmHg 43%
    11:00 +21°C° 0 mm 2 mps 653 mmHg 40%
    12:00 +21°C° 0.1 mm 2 mps 653 mmHg 40%
    13:00 +21°C° 0.1 mm 2 mps 653 mmHg 39%
    14:00 +21°C° 0.1 mm 2 mps 653 mmHg 39%
    15:00 +20°C° 0.2 mm 2 mps 652 mmHg 43%
    16:00 +20°C° 0.2 mm 1 mps 652 mmHg 48%
    17:00 +19°C° 0.2 mm 1 mps 651 mmHg 52%
    18:00 +18°C° 0.2 mm 1 mps 651 mmHg 55%
    19:00 +16°C° 0.2 mm 1 mps 651 mmHg 58%
    20:00 +15°C° 0.2 mm 1 mps 651 mmHg 61%
    21:00 +14°C° 0 mm 1 mps 651 mmHg 62%
    22:00 +14°C° 0 mm 1 mps 651 mmHg 62%
    23:00 +13°C° 0 mm 1 mps 651 mmHg 63%

    Day after tomorrow, 19 October, Friday

    Time Temperature Precipitation Wind Pressure Humidity
    00:00 +13°C° 0 mm 1 mps 651 mmHg 64%
    01:00 +13°C° 0 mm 1 mps 651 mmHg 65%
    02:00 +13°C° 0 mm 1 mps 651 mmHg 66%
    03:00 +12°C° 0 mm 1 mps 651 mmHg 67%
    04:00 +12°C° 0 mm 1 mps 650 mmHg 67%
    05:00 +12°C° 0 mm 1 mps 650 mmHg 68%
    06:00 +14°C° 0 mm 1 mps 651 mmHg 61%
    07:00 +15°C° 0 mm 1 mps 652 mmHg 54%
    08:00 +16°C° 0 mm 0 mps 653 mmHg 47%
    09:00 +20°C° 0 mm 1 mps 653 mmHg 43%
    10:00 +21°C° 0 mm 1 mps 653 mmHg 40%
    11:00 +22°C° 0 mm 1 mps 654 mmHg 36%
    12:00 +21°C° 0 mm 2 mps 653 mmHg 35%
    13:00 +23°C° 0 mm 2 mps 653 mmHg 34%
    14:00 +23°C° 0 mm 2 mps 653 mmHg 33%
    15:00 +21°C° 0 mm 2 mps 652 mmHg 37%
    16:00 +19°C° 0 mm 2 mps 652 mmHg 42%
    17:00 +19°C° 0 mm 1 mps 651 mmHg 46%
    18:00 +18°C° 0 mm 1 mps 652 mmHg 49%
    19:00 +16°C° 0 mm 1 mps 652 mmHg 52%
    20:00 +15°C° 0 mm 1 mps 652 mmHg 56%
    21:00 +15°C° 0.1 mm 1 mps 652 mmHg 56%
    22:00 +15°C° 0.1 mm 1 mps 651 mmHg 57%
    23:00 +14°C° 0.1 mm 1 mps 651 mmHg 57%

    20 October, Saturday

    Time Temperature Precipitation Wind Pressure Humidity
    00:00 +14°C° 0 mm 1 mps 651 mmHg 58%
    01:00 +14°C° 0 mm 1 mps 651 mmHg 59%
    02:00 +13°C° 0 mm 1 mps 651 mmHg 60%
    03:00 +13°C° 0 mm 1 mps 651 mmHg 61%
    04:00 +12°C° 0 mm 1 mps 650 mmHg 61%
    05:00 +12°C° 0 mm 1 mps 650 mmHg 61%
    06:00 +14°C° 0 mm 1 mps 651 mmHg 56%
    07:00 +15°C° 0 mm 1 mps 652 mmHg 50%
    08:00 +16°C° 0 mm 0 mps 652 mmHg 44%
    09:00 +19°C° 0 mm 1 mps 652 mmHg 42%
    10:00 +20°C° 0 mm 1 mps 653 mmHg 39%
    11:00 +21°C° 0 mm 1 mps 653 mmHg 37%
    12:00 +22°C° 0.1 mm 1 mps 652 mmHg 36%
    13:00 +21°C° 0.1 mm 2 mps 652 mmHg 36%
    14:00 +21°C° 0.1 mm 2 mps 652 mmHg 36%
    15:00 +20°C° 0.2 mm 2 mps 651 mmHg 41%
    16:00 +20°C° 0.2 mm 1 mps 651 mmHg 47%
    17:00 +18°C° 0.2 mm 1 mps 651 mmHg 52%
    18:00 +16°C° 0.1 mm 1 mps 651 mmHg 56%
    19:00 +16°C° 0.1 mm 1 mps 650 mmHg 60%
    20:00 +15°C° 0.1 mm 1 mps 650 mmHg 64%
    21:00 +14°C° 0.1 mm 1 mps 650 mmHg 66%
    22:00 +14°C° 0.1 mm 1 mps 650 mmHg 68%
    23:00 +13°C° 0.1 mm 1 mps 650 mmHg 70%

    21 October, Sunday

    Time Temperature Precipitation Wind Pressure Humidity
    00:00 +13°C° 0.1 mm 1 mps 650 mmHg 72%
    01:00 +12°C° 0.1 mm 1 mps 649 mmHg 74%
    02:00 +12°C° 0.1 mm 1 mps 649 mmHg 76%
    03:00 +11°C° 0 mm 1 mps 649 mmHg 78%
    04:00 +11°C° 0 mm 1 mps 648 mmHg 79%
    05:00 +11°C° 0 mm 1 mps 648 mmHg 80%
    06:00 +12°C° 0 mm 1 mps 649 mmHg 73%
    07:00 +13°C° 0 mm 1 mps 649 mmHg 66%
    08:00 +15°C° 0 mm 1 mps 650 mmHg 59%
    09:00 +16°C° 0 mm 2 mps 650 mmHg 54%
    10:00 +17°C° 0 mm 2 mps 650 mmHg 49%
    11:00 +18°C° 0 mm 2 mps 650 mmHg 45%
    12:00 +18°C° 0.2 mm 3 mps 650 mmHg 45%
    13:00 +18°C° 0.2 mm 3 mps 650 mmHg 45%
    14:00 +19°C° 0.2 mm 3 mps 649 mmHg 45%
    15:00 +17°C° 0.4 mm 3 mps 649 mmHg 52%
    16:00 +16°C° 0.4 mm 3 mps 649 mmHg 58%
    17:00 +15°C° 0.4 mm 2 mps 648 mmHg 65%
    18:00 +14°C° 0.3 mm 2 mps 648 mmHg 70%
    19:00 +13°C° 0.3 mm 1 mps 648 mmHg 76%
    20:00 +12°C° 0.3 mm 1 mps 648 mmHg 81%
    21:00 +11°C° 0 mm 1 mps 648 mmHg 82%
    22:00 +11°C° 0 mm 1 mps 648 mmHg 83%
    23:00 +10°C° 0 mm 1 mps 648 mmHg 83%

    22 October, Monday

    Time Temperature Precipitation Wind Pressure Humidity
    00:00 +10°C° 0 mm 1 mps 648 mmHg 83%
    01:00 +10°C° 0 mm 1 mps 648 mmHg 83%
    02:00 +9°C° 0 mm 1 mps 648 mmHg 83%
    03:00 +9°C° 0 mm 1 mps 648 mmHg 83%
    04:00 +8°C° 0 mm 2 mps 648 mmHg 83%
    05:00 +8°C° 0 mm 2 mps 648 mmHg 83%
    06:00 +9°C° 0 mm 2 mps 649 mmHg 78%
    07:00 +10°C° 0 mm 2 mps 649 mmHg 74%
    08:00 +12°C° 0 mm 1 mps 650 mmHg 69%
    09:00 +14°C° 0 mm 2 mps 650 mmHg 60%
    10:00 +15°C° 0 mm 2 mps 650 mmHg 52%
    11:00 +16°C° 0 mm 2 mps 651 mmHg 43%
    12:00 +17°C° 0 mm 2 mps 651 mmHg 41%
    13:00 +17°C° 0 mm 2 mps 650 mmHg 39%
    14:00 +18°C° 0 mm 2 mps 650 mmHg 37%
    15:00 +17°C° 0 mm 2 mps 650 mmHg 43%
    16:00 +15°C° 0 mm 1 mps 650 mmHg 48%
    17:00 +14°C° 0 mm 1 mps 650 mmHg 53%
    18:00 +13°C° 0 mm 1 mps 650 mmHg 57%
    19:00 +13°C° 0 mm 1 mps 649 mmHg 61%
    20:00 +12°C° 0 mm 1 mps 649 mmHg 65%
    21:00 +12°C° 0 mm 1 mps 649 mmHg 64%
    22:00 +11°C° 0 mm 1 mps 649 mmHg 64%
    23:00 +11°C° 0 mm 1 mps 649 mmHg 63%
    Show more